Theta_e
333 332 332 332 333 335 337 337 336 336 336 336 336 337 337 336 335 335 335 335 335 334 334 334 335 335 334 334 334 333 332 332 332 332 333 332 332 332 332 332 333 333 333 332 332 332 332 331 331 330 330 330 330 331 331 331 331 331 331 331 331 331 332 332 329 329 329 328 329 329 328 328 328 328 328 328 329 330 330 331 332 332 331 331 331
333 333 332 332 333 335 336 336 336 336 336 335 336 336 336 336 335 335 335 335 334 334 334 334 335 335 333 333 333 332 332 331 331 332 331 332 332 332 333 333 333 332 331 331 331 332 331 331 331 330 330 330 330 330 330 330 330 331 331 331 331 331 332 332 329 329 329 328 328 328 328 328 328 328 328 328 328 329 330 330 331 331 331 331 331
334 333 332 333 333 334 335 335 336 336 336 336 335 336 336 336 335 334 334 334 334 334 334 334 334 333 332 332 332 332 331 330 330 330 330 331 332 332 332 332 332 332 332 331 331 331 330 330 330 329 329 329 329 330 330 330 331 332 332 331 331 331 331 332 331 330 329 328 328 329 330 329 329 327 328 328 328 329 329 329 330 330 330 331 331
334 334 333 334 333 333 334 334 335 336 335 336 335 335 335 335 335 334 334 334 334 333 333 333 332 331 330 330 332 332 331 330 329 329 328 327 328 329 330 330 330 330 330 330 329 329 328 329 328 328 328 329 329 329 330 331 331 331 331 329 329 330 330 331 331 330 329 328 329 330 328 329 331 328 327 328 328 328 328 329 329 329 329 330 330
334 334 333 333 333 333 333 333 335 335 335 335 335 334 334 334 335 335 334 334 334 333 333 332 331 330 330 330 331 331 331 331 330 329 327 326 326 327 328 328 327 327 327 327 327 326 326 327 327 327 328 327 327 327 329 329 329 330 329 328 328 329 330 331 331 330 329 328 329 329 329 331 331 327 327 328 328 328 328 328 329 329 329 330 330
333 334 333 334 334 333 333 333 334 335 335 335 335 334 334 335 335 335 335 335 333 333 332 331 330 330 329 329 329 329 330 331 331 329 328 327 326 327 327 327 326 326 327 327 326 325 326 326 326 326 326 326 326 327 328 328 328 328 328 328 328 329 330 330 330 330 330 328 327 328 330 332 329 326 328 328 327 327 327 328 328 328 329 329 329
333 333 333 334 334 333 332 333 334 335 335 335 335 335 335 335 335 335 334 334 334 333 332 332 331 330 329 328 328 328 329 329 330 329 328 328 328 327 328 328 327 326 327 327 326 326 325 326 326 326 326 326 326 326 327 328 327 328 327 327 328 328 329 330 330 330 330 329 329 329 329 329 327 327 328 328 328 328 327 327 328 328 328 328 328
333 333 334 334 333 333 333 332 333 334 335 335 335 335 335 335 335 335 334 334 334 332 332 332 332 330 329 327 327 327 326 327 328 328 327 327 327 327 328 327 325 324 325 325 325 325 325 325 325 326 325 326 325 325 326 327 327 327 327 327 327 328 328 329 329 329 329 329 329 329 329 328 327 327 327 327 328 328 327 326 327 328 328 327 327
333 332 333 333 333 334 333 333 333 334 335 335 334 334 334 334 335 335 334 334 333 331 331 331 331 329 328 327 325 325 326 326 326 326 326 324 325 327 327 326 324 324 324 324 323 323 324 324 325 325 325 325 325 324 325 326 327 327 327 327 327 327 327 328 328 328 329 329 329 328 328 327 327 327 326 326 326 327 328 326 325 327 327 327 327
333 332 331 332 332 333 333 332 332 333 334 334 334 334 333 334 335 335 335 334 332 330 330 329 329 329 327 325 325 326 327 326 326 326 325 324 324 324 324 323 323 323 324 323 322 322 323 324 324 323 323 323 323 324 324 325 326 327 326 326 327 327 327 327 327 328 328 328 328 328 328 327 327 326 325 325 325 325 326 325 325 326 326 326 327
335 333 331 331 332 332 332 332 331 332 333 334 333 333 333 334 334 335 335 333 331 330 329 327 328 328 325 324 325 326 326 325 326 325 324 323 322 321 320 320 320 321 322 322 321 322 323 323 321 321 320 320 321 323 324 324 324 325 325 324 324 323 322 323 324 326 327 327 327 327 327 327 327 326 325 325 324 323 325 325 324 325 326 326 327
334 333 331 331 331 331 331 331 331 332 332 333 333 332 333 333 333 335 334 332 331 331 329 327 327 326 324 324 325 324 324 325 325 324 324 323 322 320 319 319 319 319 320 321 321 322 322 321 319 320 320 320 321 322 323 323 323 323 322 320 319 317 316 317 319 320 322 323 324 325 326 326 327 327 326 325 325 324 325 324 323 325 325 326 325
334 333 332 331 331 331 331 331 331 332 332 333 333 333 333 333 334 334 332 331 332 331 329 328 326 325 324 324 324 323 324 325 325 324 323 322 321 320 319 319 320 319 320 320 320 321 321 320 319 320 320 320 322 322 321 322 323 323 321 317 316 316 315 316 316 316 317 318 320 322 325 326 326 327 326 325 325 325 324 323 323 324 324 325 325
334 334 333 331 331 331 330 331 332 333 333 333 333 333 333 334 334 332 331 331 333 332 329 328 326 325 325 324 324 324 325 326 325 324 323 322 320 320 319 320 320 319 319 319 320 320 320 319 319 320 319 319 320 320 320 320 320 321 320 316 315 315 315 315 315 315 316 317 320 322 325 326 326 326 326 325 324 324 324 323 322 323 323 324 324
334 334 333 332 332 331 330 332 332 333 333 333 333 333 333 334 333 331 330 331 333 331 330 328 328 327 326 324 324 325 325 324 324 324 323 322 321 320 320 320 319 318 318 319 319 320 319 319 319 319 318 318 318 318 317 316 317 319 318 315 315 315 314 315 315 315 316 317 318 321 324 325 326 326 326 324 324 324 324 323 322 322 322 321 319
334 334 334 333 332 331 331 332 332 333 333 333 333 333 334 334 333 331 330 331 332 331 330 330 329 328 325 324 324 324 324 323 324 324 323 322 321 320 319 318 318 318 317 318 318 319 319 318 318 318 318 318 316 315 315 314 314 316 316 315 315 314 314 314 314 315 315 316 316 317 319 320 323 325 325 323 323 322 323 323 322 322 321 318 317
334 334 333 333 332 332 332 332 332 332 332 333 333 333 334 334 332 331 331 331 331 331 330 329 328 327 325 324 324 324 323 323 324 323 322 322 322 321 319 317 317 317 316 316 316 318 319 317 316 317 317 316 314 313 315 315 314 315 315 315 314 314 313 313 313 313 314 314 315 315 314 314 318 322 324 323 322 322 322 322 322 321 319 318 318
333 333 333 332 332 332 332 332 332 332 332 332 332 332 333 333 332 331 331 330 330 331 330 328 327 328 326 325 324 323 323 323 323 323 322 321 321 319 318 317 317 317 316 315 315 316 317 317 315 315 315 314 313 314 315 315 314 314 315 315 314 313 313 313 313 312 312 313 314 314 313 313 315 317 320 320 320 321 321 321 321 321 319 317 317
331 331 331 331 330 330 331 331 331 331 331 331 332 332 332 332 332 331 330 330 330 330 329 327 327 328 327 325 324 323 323 324 323 323 322 321 320 318 317 318 319 318 316 315 314 315 316 316 316 315 314 314 314 314 314 314 314 313 314 315 314 314 314 315 315 313 312 313 314 314 313 313 313 314 315 316 316 316 317 318 320 320 319 318 316
330 329 330 329 328 327 328 329 328 328 329 329 330 331 331 331 332 331 330 330 330 329 328 327 328 328 327 324 324 324 323 323 323 323 322 321 319 318 318 318 319 317 315 315 315 316 316 316 315 315 315 314 314 314 315 315 315 314 314 315 314 314 315 315 316 315 314 313 313 314 313 313 313 314 314 314 314 315 315 316 319 319 317 317 316
328 328 328 327 327 327 327 327 326 325 326 328 329 329 329 330 331 331 331 330 330 329 329 329 328 327 326 324 324 324 323 323 323 322 321 320 319 318 318 318 318 316 316 316 316 316 316 316 316 316 316 316 316 316 316 316 315 315 315 315 315 315 314 313 315 315 315 314 313 313 313 313 313 313 314 314 314 315 315 316 317 317 315 315 315
326 326 326 325 326 326 326 326 325 325 325 326 327 328 328 329 330 330 330 329 329 329 329 329 328 327 327 325 324 324 324 323 323 321 321 320 319 318 318 319 318 317 317 318 317 316 316 317 317 316 316 316 316 317 317 316 316 316 316 316 316 316 315 314 314 314 314 313 313 313 314 314 314 314 314 314 314 315 315 315 314 314 313 312 312
326 325 324 324 324 325 325 326 326 326 325 325 326 327 327 327 327 328 329 329 329 328 328 328 327 327 326 325 325 324 323 323 322 321 320 320 319 319 319 318 318 317 318 319 318 318 319 318 317 317 318 317 317 318 317 317 318 318 317 315 316 316 315 315 315 315 314 313 313 313 314 315 315 314 314 313 314 315 315 314 313 312 312 311 311
325 325 325 324 324 325 325 326 326 326 325 325 325 325 325 325 324 326 328 329 329 328 326 325 325 325 325 325 324 323 322 322 322 321 321 320 319 319 319 318 318 318 319 319 319 320 320 319 318 319 320 319 320 320 319 318 320 320 318 316 316 317 316 316 316 316 316 316 315 314 315 316 316 315 314 314 314 314 315 314 313 313 312 312 311
325 325 325 325 325 325 325 326 326 325 325 325 324 324 324 325 325 326 326 326 327 327 324 323 324 324 324 324 323 322 322 322 322 323 321 320 320 319 319 319 319 319 320 320 320 320 320 320 319 321 321 321 321 321 320 319 320 321 320 318 318 319 319 318 317 317 317 318 318 317 317 318 318 316 315 315 314 315 315 316 316 316 315 314 312
324 324 324 324 324 324 323 324 325 325 324 325 325 324 325 325 325 325 325 324 324 325 324 323 323 323 324 325 323 322 323 323 323 322 322 322 320 320 320 319 319 320 320 320 320 320 320 321 321 321 321 322 322 322 322 321 321 322 321 321 320 321 321 320 319 318 319 319 319 319 319 319 319 318 317 316 316 315 315 316 317 317 317 316 315
322 323 323 323 323 323 322 322 323 324 325 325 325 325 326 326 325 325 325 324 324 325 325 323 322 322 324 325 324 323 323 323 320 320 322 321 316 317 320 320 320 320 320 320 320 321 321 321 321 322 322 322 323 323 323 323 323 323 322 322 322 321 322 322 321 321 321 321 320 320 320 320 320 320 319 318 317 316 315 315 316 316 317 317 317
316 316 317 317 318 319 319 318 319 322 324 325 324 325 325 325 325 325 325 324 324 325 325 323 322 323 324 324 323 323 322 319 316 316 318 315 311 315 320 320 319 319 320 321 321 321 322 321 321 322 322 322 323 323 323 323 323 324 323 323 322 321 321 321 322 321 321 320 320 321 321 321 320 320 320 320 319 318 316 315 315 316 316 316 317
310 310 311 311 311 312 312 311 312 315 319 323 324 324 324 324 325 325 324 324 324 325 324 323 322 322 324 324 323 323 322 319 317 318 318 316 315 318 321 319 319 319 320 321 321 320 321 321 321 321 320 321 321 322 323 323 323 323 323 323 322 322 321 320 321 321 321 320 320 320 321 320 320 321 320 320 320 319 317 316 316 316 316 316 316
307 307 308 307 307 307 307 307 308 309 312 317 321 323 323 323 324 324 324 324 325 325 324 323 322 321 323 324 323 324 324 321 320 321 321 320 319 319 320 319 319 319 320 320 321 320 320 321 321 320 319 319 319 320 321 322 321 322 323 322 321 321 321 320 319 320 320 320 320 320 321 320 320 321 320 321 320 320 319 318 317 317 316 316 317
306 306 305 305 306 305 305 306 307 307 308 311 317 321 322 322 323 323 324 324 324 324 324 323 323 322 322 323 323 324 325 323 322 322 322 322 321 319 319 320 320 320 321 320 321 321 320 320 321 320 319 319 319 320 320 319 319 320 321 321 321 320 320 319 319 319 320 321 320 320 321 321 321 321 320 320 320 320 320 319 318 317 317 317 317
305 305 304 304 304 304 305 305 306 307 308 308 313 319 321 322 322 322 322 322 322 323 323 323 324 323 323 324 324 324 325 324 322 322 323 324 322 321 320 320 321 321 321 321 321 321 321 321 320 320 320 320 320 319 319 318 318 319 320 321 321 320 319 319 318 319 320 320 320 320 321 321 321 321 320 320 320 320 319 318 317 316 316 317 317
304 304 304 304 304 304 304 304 305 305 306 307 310 314 316 319 322 322 321 321 321 322 322 322 322 322 323 323 323 323 323 323 322 322 323 324 323 322 321 321 321 321 321 321 321 321 321 321 321 320 320 320 320 319 318 318 318 318 320 321 321 319 319 318 317 318 320 320 321 321 321 320 320 319 319 318 317 316 314 312 312 312 313 314 316
304 304 303 304 304 304 304 304 304 304 305 306 307 308 309 312 315 317 318 319 319 320 321 321 321 321 321 321 322 322 322 322 322 322 323 323 323 322 322 321 321 321 321 321 321 321 321 321 321 321 320 320 320 319 318 317 317 317 319 319 319 319 318 318 317 317 319 321 321 321 320 319 318 317 316 316 314 313 311 309 308 309 310 311 312
304 304 304 304 304 304 304 303 303 303 304 305 306 305 305 306 306 308 309 310 311 311 313 316 318 319 320 320 321 321 322 322 323 323 323 323 322 322 322 322 322 321 321 321 321 321 321 321 321 320 320 319 319 318 317 317 318 318 319 319 319 319 318 318 317 318 320 321 321 321 320 319 318 317 316 315 314 313 312 310 309 309 309 309 308
304 304 304 304 304 304 303 303 303 304 304 304 305 305 304 304 303 303 303 304 304 305 305 307 310 313 317 319 320 320 321 321 321 321 321 321 321 322 321 321 321 321 322 321 321 321 321 320 320 320 319 319 318 317 318 319 318 319 319 318 318 318 318 318 318 319 320 321 321 321 320 318 317 317 317 316 315 314 313 312 311 310 310 309 308
303 303 303 303 303 303 303 303 303 304 304 304 304 304 303 303 303 302 302 303 303 303 303 303 304 306 309 313 316 318 319 320 321 321 321 321 321 321 321 321 321 321 322 322 322 321 320 320 319 319 319 318 318 318 319 319 319 319 317 315 315 317 317 317 318 318 319 320 321 321 319 316 316 316 316 315 314 314 313 313 312 311 310 309 308
303 303 303 302 302 302 302 302 302 303 303 303 304 304 303 302 302 302 302 302 302 302 302 302 302 302 303 305 307 310 311 313 315 318 320 321 322 321 321 321 321 321 321 321 320 320 319 319 319 319 319 318 318 319 318 317 318 317 314 312 314 316 316 316 316 316 317 318 319 319 318 316 315 314 313 312 311 311 312 312 312 311 310 308 307
303 303 302 302 302 302 302 302 301 301 302 302 303 304 303 301 301 301 301 301 301 302 302 302 302 302 302 302 303 304 304 305 306 308 312 315 318 320 321 321 321 320 320 320 320 319 319 318 318 319 319 318 318 318 316 315 314 312 310 311 315 315 315 316 315 316 316 317 317 317 316 316 314 312 309 307 307 307 307 308 310 310 309 308 307
302 302 301 301 301 300 300 300 300 300 301 301 301 302 301 301 301 301 301 301 301 301 301 301 301 302 301 302 302 302 302 303 303 304 305 306 308 312 316 320 321 321 320 320 320 319 318 318 318 318 317 317 317 316 313 312 309 306 306 311 315 315 315 315 314 315 315 316 316 315 314 313 312 307 303 301 301 302 302 304 308 310 309 308 307
299 300 300 299 299 299 299 299 299 300 300 300 300 300 300 300 300 300 300 300 300 300 301 301 301 301 301 301 302 301 302 302 302 303 305 305 305 306 308 312 316 319 320 320 319 319 318 317 317 317 315 315 315 314 312 310 306 302 304 309 313 314 314 314 313 313 313 313 313 313 312 312 309 304 300 300 300 300 302 305 308 309 309 308 307
298 298 299 299 298 299 299 299 299 299 299 300 300 299 299 299 299 299 299 299 300 300 300 300 300 300 300 301 301 301 301 302 302 302 303 304 304 304 304 305 306 310 314 317 319 319 319 318 317 316 314 313 313 312 310 307 303 301 304 308 311 312 313 314 313 312 311 310 309 310 311 310 306 302 300 301 301 301 303 305 306 306 306 306 305
298 298 298 298 298 298 299 298 298 298 298 299 299 299 299 298 298 298 298 299 299 299 299 299 299 299 299 300 300 300 300 301 301 301 301 302 302 302 302 303 303 304 306 310 313 315 316 317 318 317 315 314 313 310 307 304 302 301 303 306 309 310 311 313 313 312 311 309 307 308 309 307 303 301 302 302 301 302 303 304 304 303 303 303 302
298 298 298 298 298 298 299 299 299 298 298 298 298 298 298 297 297 297 297 298 298 298 298 298 297 298 298 298 298 298 299 299 299 300 300 301 301 301 301 301 302 302 303 305 308 310 312 313 314 316 316 315 315 312 306 302 301 301 301 303 304 305 308 311 313 312 312 309 307 307 307 305 302 302 302 302 302 303 304 303 303 303 302 301 299
297 298 298 298 298 298 298 298 298 298 298 297 297 297 297 296 296 297 297 297 297 297 297 296 296 297 297 297 297 297 297 298 298 298 299 299 300 300 300 300 301 301 301 301 303 306 309 311 311 312 313 314 316 314 308 302 301 302 301 301 301 302 305 308 310 312 312 309 307 307 306 304 302 303 303 302 303 304 304 304 303 303 301 299 298
297 297 297 298 298 298 298 297 297 297 297 296 296 296 295 295 296 296 296 296 296 296 296 295 296 296 296 296 296 296 296 297 297 298 298 298 299 299 300 300 300 301 301 300 300 301 304 307 309 310 311 312 313 311 307 304 302 302 302 302 301 302 304 306 307 310 311 309 307 307 305 304 303 304 303 303 304 304 304 304 303 302 300 298 298
297 297 297 297 298 297 297 296 296 296 296 296 295 295 295 295 295 295 295 295 295 295 295 294 295 295 295 295 295 295 295 296 296 297 297 298 298 299 299 300 300 300 301 301 301 301 301 302 305 307 309 310 310 309 306 305 304 303 303 303 302 302 303 305 306 308 309 308 306 305 304 304 304 304 304 303 304 304 303 303 302 300 298 298 298
297 297 297 297 297 296 296 296 295 295 295 295 295 295 294 294 294 294 295 295 294 294 294 294 293 294 294 294 294 294 294 295 295 296 296 297 297 298 298 299 299 300 300 300 301 301 301 301 302 305 307 309 309 309 308 308 307 304 302 302 302 303 303 303 305 307 307 305 304 304 303 303 303 303 303 302 303 303 302 301 299 298 297 298 298
296 297 297 296 296 296 296 296 295 295 295 295 295 294 294 294 294 294 294 294 294 293 293 293 293 293 293 293 293 293 294 294 294 295 295 296 296 297 297 298 298 299 300 300 300 301 302 302 302 304 307 308 308 309 309 309 309 308 304 302 301 301 300 299 301 304 304 303 303 303 303 303 302 302 302 302 302 301 300 299 298 298 298 298 298
296 296 296 296 296 296 296 296 295 295 295 295 294 294 294 294 294 293 293 293 293 293 293 293 292 292 292 292 293 293 293 294 295 295 295 295 296 296 296 297 298 298 299 300 300 301 301 302 302 304 306 307 308 308 309 309 309 309 308 306 303 302 301 300 301 302 303 303 303 303 303 302 302 302 301 302 301 300 299 298 298 298 297 297 297
296 296 296 296 296 295 295 295 295 295 295 295 294 294 294 293 293 293 293 293 292 292 292 292 292 292 292 292 293 293 294 294 295 295 295 295 296 296 296 296 297 298 299 299 300 301 301 301 302 303 305 307 307 307 308 308 308 307 306 307 306 305 305 303 302 302 303 303 302 301 301 302 302 301 301 302 302 301 299 298 297 297 297 297 296
Wind_Speed
10 15 18 20 24 28 28 31 32 31 32 34 33 33 34 32 29 31 32 32 32 32 31 29 27 25 24 23 22 20 19 19 18 17 17 18 17 16 14 11 10 9 8 7 6 7 7 7 7 6 7 7 7 6 5 5 6 6 6 6 7 10 10 10 9 8 8 8 9 11 10 10 10 10 8 6 5 5 5 6 9 11 12 11 11
10 11 14 19 22 25 28 30 30 29 31 34 34 34 34 32 31 32 33 33 32 31 31 30 28 27 25 23 22 20 19 20 19 18 17 17 16 14 12 11 9 8 8 7 7 7 7 8 8 7 7 7 7 7 5 6 7 6 6 7 8 10 10 11 12 8 6 7 8 9 9 10 11 12 12 10 7 5 4 5 6 7 9 10 11
11 10 13 17 20 24 25 26 27 28 30 31 30 32 32 31 31 32 32 32 31 30 30 28 26 25 23 22 22 21 19 19 19 18 17 16 14 12 12 11 10 9 9 8 9 9 9 10 10 9 10 9 8 8 7 6 7 7 6 7 9 11 10 10 10 7 9 10 9 5 3 5 7 10 12 12 9 8 6 5 6 6 7 9 10
13 11 12 14 17 21 21 21 22 23 26 26 25 27 29 29 29 30 31 30 30 29 27 25 24 23 22 22 22 21 19 19 19 17 16 15 14 13 13 13 13 13 11 11 11 11 11 11 11 10 10 9 8 7 7 7 7 6 6 6 9 12 11 8 7 10 14 12 6 3 2 2 2 4 9 11 9 8 7 6 7 8 7 7 7
14 14 13 13 16 18 19 20 21 21 23 22 21 23 25 26 28 30 31 30 29 27 25 25 25 25 24 23 21 20 19 19 19 17 15 15 15 15 16 16 15 15 14 13 12 10 11 11 11 10 9 9 8 7 8 7 6 6 6 5 7 10 11 9 8 12 14 10 6 5 4 2 1 4 6 8 8 8 7 6 7 7 8 6 5
12 14 15 14 16 17 18 20 20 20 20 19 20 21 23 24 26 29 29 29 28 27 26 27 27 28 28 25 23 21 20 20 20 19 16 15 15 17 17 16 15 14 13 12 10 10 10 10 10 10 10 11 11 10 10 9 8 6 5 5 6 8 10 12 11 12 11 8 9 8 3 3 8 8 4 3 6 9 7 6 7 7 7 6 6
9 12 14 13 13 15 17 19 20 19 18 18 19 20 21 22 24 26 27 27 27 25 25 26 27 28 28 26 25 25 23 21 21 19 16 15 14 16 17 15 14 14 12 11 10 9 9 10 10 10 10 11 11 11 11 10 9 6 5 5 7 8 11 13 13 12 10 8 9 8 7 8 16 11 5 4 3 5 7 6 7 9 9 7 6
9 11 13 11 12 13 16 19 20 19 19 20 20 20 20 20 22 23 24 25 24 23 23 24 27 28 27 26 26 25 24 23 22 20 16 15 14 15 17 16 15 14 14 12 10 9 9 11 12 12 12 12 11 10 10 9 9 8 7 7 8 9 10 12 14 12 12 10 8 6 5 12 14 9 11 13 5 2 4 4 6 9 10 8 6
10 10 11 9 11 14 17 20 19 18 20 22 21 20 20 20 21 21 22 23 21 21 21 23 27 29 28 27 25 24 24 24 23 20 18 18 18 18 19 19 17 15 15 13 10 9 10 12 13 13 12 12 11 10 10 10 11 10 10 11 11 10 9 11 12 11 11 12 10 8 9 13 11 8 15 16 8 5 3 1 5 9 9 7 7
7 6 6 8 12 16 17 18 19 18 19 22 22 20 20 20 21 22 22 22 21 21 23 25 29 30 28 28 26 25 26 26 23 21 21 22 22 22 21 20 17 16 14 13 11 10 13 15 14 13 11 11 12 12 12 12 13 13 12 12 12 12 11 10 10 10 10 10 10 11 11 13 10 8 12 14 9 5 4 4 7 8 8 7 7
6 7 8 9 13 16 16 16 18 18 18 20 21 20 19 20 21 22 22 22 22 23 25 28 30 30 29 28 28 28 28 27 25 24 23 22 22 22 21 19 17 15 14 14 13 14 17 17 16 14 13 13 14 13 13 13 13 13 13 13 13 13 13 11 10 10 10 9 9 11 13 14 11 8 12 14 10 6 6 6 7 10 10 9 10
6 8 9 10 11 13 14 15 17 18 18 19 20 19 18 19 20 21 22 22 22 23 25 27 29 28 28 29 29 30 30 29 28 26 24 22 22 22 21 19 17 15 14 14 14 16 19 19 17 17 16 15 15 14 13 13 13 14 14 15 16 16 17 16 15 14 12 11 10 9 11 12 11 11 16 17 15 16 14 8 8 11 10 10 14
8 8 9 10 10 11 13 15 17 18 19 20 21 21 19 19 20 20 21 22 23 24 23 25 27 27 28 29 29 30 30 29 28 26 24 23 22 22 21 19 18 17 15 15 15 17 19 19 17 17 17 15 15 14 13 12 12 14 15 17 18 17 18 18 19 18 16 14 12 10 10 10 11 13 16 16 19 22 18 11 10 11 10 12 13
10 10 10 9 9 11 14 15 16 18 20 22 23 23 21 20 20 20 20 22 23 23 23 23 25 25 27 29 29 31 31 29 27 25 24 24 23 22 20 20 20 18 17 16 16 17 18 18 17 18 16 15 14 13 12 12 12 14 15 17 17 16 16 17 17 18 17 16 13 11 11 10 10 13 14 18 22 22 19 16 12 10 11 12 9
10 9 8 8 10 13 15 16 17 18 21 23 23 23 21 20 20 19 20 22 22 22 22 21 21 23 26 28 30 30 29 27 26 25 25 25 23 22 21 20 20 18 17 16 16 17 17 17 17 18 16 15 14 13 13 13 14 16 17 17 17 15 15 15 15 16 17 17 16 14 12 10 9 10 13 18 22 22 20 19 16 10 7 6 6
8 7 8 9 13 17 18 18 19 20 21 21 21 21 21 20 21 21 21 23 22 21 21 19 19 22 24 27 28 28 27 25 25 25 25 24 23 21 20 19 19 18 18 16 16 17 17 17 17 17 17 15 14 14 16 16 17 19 19 18 17 15 14 14 14 15 16 17 18 18 16 14 10 9 12 18 19 19 18 17 18 17 10 3 3
6 6 7 9 12 17 20 21 22 21 19 20 21 23 24 24 23 22 21 22 21 20 19 19 20 20 22 25 26 26 26 25 25 25 24 23 22 20 20 19 20 19 18 17 16 18 18 17 17 18 17 15 15 16 17 16 17 19 20 19 17 15 14 14 14 15 14 15 17 19 19 18 14 11 13 16 17 17 16 14 18 21 18 10 4
5 6 7 7 8 13 18 20 21 21 19 20 21 23 25 26 25 24 22 21 20 19 18 19 20 19 21 24 26 26 25 25 24 23 23 24 23 22 21 21 21 20 18 17 17 18 19 18 18 17 16 15 16 16 16 15 16 19 20 19 17 16 17 17 15 15 14 14 16 18 18 19 18 16 15 15 15 14 14 15 19 22 22 18 12
5 5 6 6 7 10 14 15 16 18 17 16 17 20 23 25 25 24 22 20 18 18 18 18 17 17 20 24 26 26 25 24 23 22 24 25 24 23 23 23 22 19 18 18 19 19 19 18 17 16 15 15 15 16 16 16 16 17 19 19 17 17 17 16 14 14 14 14 15 16 16 16 17 17 16 15 14 11 10 15 22 25 24 23 21
4 4 5 6 8 11 14 15 15 16 14 12 14 17 19 22 23 23 21 18 16 15 15 15 14 15 19 24 26 24 24 24 23 24 25 25 24 24 24 23 21 18 18 19 20 19 19 18 17 17 16 16 17 17 16 16 16 17 18 19 17 16 15 14 13 12 12 13 15 15 13 12 13 15 15 14 12 10 8 12 22 27 26 23 22
5 4 4 6 8 11 14 15 16 15 12 11 12 13 13 17 21 22 21 19 16 14 11 10 11 12 16 23 26 25 25 25 24 24 24 23 24 24 23 22 19 17 19 20 19 19 19 19 18 18 17 17 17 17 16 15 16 17 17 17 15 14 14 13 12 12 11 11 13 13 11 10 10 11 12 13 12 10 9 12 20 25 25 23 20
6 5 4 4 7 11 13 14 16 16 12 10 12 11 12 15 18 20 22 21 19 17 12 11 15 16 16 21 25 25 25 25 24 22 21 22 24 24 22 20 18 17 19 19 18 19 18 17 18 18 17 17 17 17 16 16 16 16 15 15 14 14 14 13 12 12 11 9 9 10 10 9 8 10 12 13 13 12 12 15 21 23 23 21 18
6 5 6 6 8 10 11 11 15 16 13 12 14 15 15 14 14 17 20 22 21 19 16 16 20 21 19 19 22 23 23 23 24 22 21 23 24 23 21 20 19 18 18 17 17 18 17 17 19 19 17 17 17 16 16 15 14 14 15 16 16 15 15 14 13 12 10 9 7 8 9 8 8 10 11 12 13 14 14 17 20 20 20 19 16
6 7 5 5 5 5 6 9 12 13 11 12 12 12 12 13 14 15 18 20 22 20 17 17 20 20 19 21 22 23 23 22 21 21 22 23 22 22 22 20 20 20 18 17 17 16 16 18 19 18 16 16 16 16 17 16 13 13 16 17 16 15 14 13 13 13 12 10 9 9 9 8 8 10 10 11 13 15 15 16 17 16 16 15 14
5 6 6 3 2 1 5 9 11 10 9 9 8 6 8 11 14 16 17 19 21 21 17 17 19 18 18 21 22 21 20 20 19 18 20 21 21 21 21 19 20 21 19 18 17 17 17 18 18 18 17 16 15 16 18 17 14 13 16 17 16 14 13 13 13 13 12 12 11 10 10 8 8 10 10 10 13 14 15 15 15 14 14 13 12
6 6 6 5 4 5 9 11 11 11 10 9 7 6 7 11 13 14 15 17 20 22 20 19 20 18 16 20 21 19 18 20 20 18 19 20 20 18 17 18 20 22 21 19 19 19 19 18 18 18 18 17 16 17 17 17 16 15 15 15 15 14 13 12 13 12 12 12 12 11 11 9 8 9 9 9 11 12 12 13 14 14 13 13 12
7 7 8 7 6 7 9 11 11 10 11 10 8 6 6 7 8 10 13 15 17 18 20 22 22 21 19 20 22 21 21 22 22 21 21 21 20 18 18 19 20 22 22 21 21 20 19 19 19 19 19 18 17 18 17 17 16 15 15 14 13 13 12 12 11 11 11 11 11 11 11 11 9 8 9 8 8 10 10 11 11 12 12 12 13
10 10 10 10 8 8 11 14 14 12 10 11 10 6 4 3 4 6 8 11 14 17 20 22 23 23 21 20 21 21 21 21 22 22 22 20 20 20 22 22 22 23 24 22 22 22 20 19 19 19 19 19 19 18 18 17 16 15 15 15 13 12 12 12 11 11 11 10 11 11 11 11 10 8 8 7 7 8 10 10 10 10 10 12 13
12 11 11 11 10 9 13 16 18 19 15 12 11 9 6 5 5 5 5 8 11 14 18 20 21 21 18 18 20 20 20 21 22 21 20 19 20 22 23 22 23 24 24 22 22 23 21 19 19 18 18 19 19 18 18 17 16 15 15 14 13 12 11 12 12 12 12 11 12 12 12 11 11 10 8 7 7 7 8 9 9 8 8 10 11
12 12 12 11 11 11 15 18 19 20 19 14 10 11 12 11 10 8 6 7 8 9 13 15 17 18 17 17 18 18 19 21 20 18 17 17 20 22 22 22 23 23 23 22 22 22 22 20 19 18 17 18 17 17 18 17 16 15 15 13 12 12 11 11 12 13 13 12 12 12 12 11 11 10 9 9 9 8 7 8 8 7 6 6 7
11 12 12 12 12 14 17 19 20 20 21 17 10 12 15 15 16 14 11 9 8 8 9 11 12 14 15 15 16 16 17 20 20 18 16 15 18 21 22 22 22 22 22 21 21 22 22 21 20 19 18 17 17 16 17 16 16 16 15 13 13 12 12 12 13 13 14 14 13 12 12 12 11 11 11 10 11 10 9 8 7 6 4 4 5
11 11 12 12 12 14 17 19 21 22 23 21 17 16 15 12 13 15 14 11 9 8 8 10 11 12 12 14 15 16 16 18 20 18 16 15 17 18 20 20 20 21 21 22 22 22 21 20 20 19 18 17 17 17 16 14 14 14 14 13 13 12 11 12 12 12 13 14 15 14 13 13 12 11 12 12 11 10 9 8 7 6 5 5 5
10 10 11 12 11 14 17 20 22 24 24 24 25 26 24 19 15 13 12 9 6 4 7 9 10 11 12 12 14 15 15 17 19 18 16 15 14 15 16 17 19 20 21 21 21 20 20 19 19 18 17 17 17 17 16 14 13 13 13 13 12 11 11 10 10 11 13 15 16 16 15 14 13 12 12 12 11 10 9 7 5 5 4 4 4
9 8 9 10 12 15 19 22 23 23 24 28 30 30 30 29 25 21 17 13 10 9 10 9 9 9 10 11 12 12 12 13 15 16 17 16 15 14 14 14 15 17 18 19 18 18 18 18 18 17 17 17 17 17 15 14 13 13 14 13 12 12 11 9 10 13 15 15 16 17 17 16 16 14 14 13 11 10 9 7 6 6 5 4 4
7 7 8 11 14 16 19 23 25 24 25 29 31 30 31 32 31 30 28 25 23 22 20 16 11 8 7 9 10 11 10 10 11 13 16 17 16 14 13 12 12 13 14 15 16 16 17 17 17 17 16 17 17 15 14 13 13 14 14 13 13 14 12 9 10 14 15 15 15 16 18 18 17 17 15 13 11 10 9 9 9 9 8 8 7
8 9 10 13 15 16 17 22 25 25 25 27 28 29 30 31 32 32 30 29 29 29 28 26 22 17 10 6 5 6 6 6 7 9 12 13 13 12 11 11 11 12 13 14 14 15 16 17 17 16 16 16 16 14 14 14 14 15 14 14 13 14 13 11 11 14 15 16 16 17 17 16 17 17 16 13 11 9 9 9 10 10 9 9 8
13 16 16 16 18 18 18 22 26 25 24 24 27 29 30 31 30 29 28 28 28 28 27 28 28 26 22 16 10 7 4 2 3 5 7 8 8 7 8 10 11 13 14 15 15 15 15 16 16 17 17 17 16 15 15 15 15 16 15 14 14 14 14 14 13 14 15 16 18 19 18 17 17 17 16 13 11 9 9 9 10 10 10 9 9
13 17 18 18 19 19 20 23 25 24 21 22 24 26 29 30 28 27 27 26 26 25 25 26 26 26 26 25 22 18 16 12 8 4 3 5 7 7 7 8 9 11 14 15 15 15 16 17 17 17 17 16 15 15 15 15 16 17 15 13 14 17 18 17 16 15 15 17 19 20 19 17 17 16 14 12 11 10 10 10 11 12 12 10 10
13 16 18 18 18 19 20 23 24 22 21 21 21 22 26 29 27 27 28 27 25 24 24 24 23 23 23 24 24 23 23 22 19 16 12 9 6 8 9 10 9 10 12 13 14 14 15 15 15 15 14 13 14 16 17 16 16 16 15 14 16 19 20 19 19 18 18 18 19 19 17 16 15 14 12 11 10 10 10 10 11 12 13 11 10
11 13 15 18 20 21 21 22 22 21 20 21 20 21 24 26 25 26 27 26 25 23 21 21 20 20 20 21 21 22 22 22 21 19 18 17 15 10 7 9 12 12 11 11 13 13 14 14 13 13 13 14 16 18 18 17 17 17 16 15 17 21 23 21 21 21 21 21 20 18 16 16 14 13 11 10 9 8 8 8 9 11 12 11 11
15 13 14 18 21 21 20 20 20 19 19 20 21 22 24 23 23 25 24 22 21 20 20 20 19 20 19 19 20 19 19 20 21 19 16 16 17 15 12 8 8 12 13 14 14 14 15 15 14 14 15 16 18 19 19 19 19 19 18 17 17 19 23 23 21 22 22 22 22 21 19 16 14 12 10 9 8 7 8 9 9 10 10 9 9
19 18 18 19 20 20 20 19 17 17 18 18 19 21 22 21 22 22 20 18 18 18 19 19 19 20 20 19 19 19 17 17 19 19 18 17 16 15 13 13 12 10 10 14 17 17 18 18 17 18 19 19 20 20 20 21 21 20 20 19 17 16 20 22 22 23 23 23 22 22 21 18 15 13 11 10 9 9 9 10 10 9 9 8 7
18 18 17 18 18 18 19 18 16 16 16 16 17 19 20 20 20 19 16 16 16 17 18 18 19 20 20 19 19 19 18 17 17 18 18 17 17 17 15 15 15 15 13 10 11 15 17 20 21 22 22 22 22 22 22 22 23 22 20 20 19 17 18 23 25 24 24 24 24 23 22 19 17 14 12 11 11 10 10 10 9 8 7 7 6
16 15 15 15 16 16 16 15 15 15 15 16 17 17 19 21 20 17 15 15 16 16 17 18 19 19 20 20 19 18 18 17 16 16 16 16 17 18 17 16 16 16 17 16 10 9 12 15 20 23 24 25 24 24 24 24 23 23 22 20 20 19 18 22 27 27 25 25 26 25 23 20 18 15 13 11 10 9 8 8 7 6 5 5 5
13 13 13 13 14 13 13 13 13 14 15 17 17 18 20 21 19 15 15 15 15 16 17 18 19 19 19 19 18 18 18 17 16 16 16 17 18 18 18 18 18 17 17 18 15 9 9 11 14 18 22 26 27 26 26 26 24 22 21 20 19 21 20 20 24 29 28 26 26 25 23 21 19 16 13 12 10 9 8 6 5 4 4 4 5
12 12 11 10 10 12 14 18 18 18 18 19 19 19 20 19 16 15 15 15 15 17 18 18 18 18 17 17 18 18 17 17 16 16 16 16 17 18 19 19 19 17 16 18 19 16 12 10 12 15 18 22 25 22 19 22 23 21 20 19 19 19 19 17 19 25 27 25 25 25 23 21 18 15 13 12 11 10 8 6 4 4 4 5 6
10 10 9 9 11 15 18 20 21 19 18 18 19 19 19 17 16 15 15 14 15 17 18 18 18 17 17 17 17 18 17 16 16 16 16 15 16 17 19 20 20 20 19 18 18 18 17 15 15 16 18 21 23 21 18 19 21 19 18 18 17 18 19 17 19 23 25 24 25 24 22 19 17 14 13 12 11 10 8 7 6 6 6 7 7
12 11 11 12 15 17 18 18 18 17 17 17 18 18 17 16 17 16 14 14 15 16 16 17 17 17 17 17 16 17 16 16 16 16 16 17 17 18 19 19 19 20 21 20 18 17 17 18 19 20 20 22 23 22 23 25 26 21 15 11 10 12 12 11 13 18 21 23 25 24 21 18 16 14 13 12 10 9 8 8 8 9 9 8 7
15 15 16 16 16 15 15 15 15 14 14 15 16 16 16 16 16 16 15 14 14 14 14 15 15 16 16 16 16 15 16 15 15 15 15 15 16 17 17 17 16 17 18 19 19 18 17 17 18 20 22 23 23 23 25 27 28 25 17 11 10 9 6 4 4 10 15 20 22 21 19 18 15 14 13 11 10 10 9 9 10 10 9 8 7
14 14 14 14 13 12 12 12 12 12 12 13 13 13 14 14 14 14 14 14 13 13 13 13 14 15 15 14 14 14 14 14 14 15 15 15 15 15 15 15 15 15 16 17 18 17 17 17 17 17 19 23 23 22 23 25 24 22 20 18 19 17 11 7 9 12 15 19 22 22 21 19 16 14 14 13 11 10 10 11 11 11 9 8 6
11 11 11 11 11 10 9 9 9 9 10 11 11 12 12 13 13 13 12 12 12 13 13 13 14 14 13 13 13 12 12 12 13 14 16 17 16 15 14 13 13 13 13 15 16 15 15 15 16 16 17 21 23 21 22 24 23 22 21 21 21 22 20 18 19 21 23 25 26 24 21 18 16 16 16 13 10 10 12 13 13 11 9 7 5
Wind_Direction
158 158 161 163 162 161 161 163 164 167 169 168 166 165 165 165 164 164 166 168 169 169 171 171 170 171 174 177 180 180 177 172 168 164 160 160 159 152 147 145 147 154 158 157 153 151 156 154 151 151 147 151 165 172 169 164 165 163 154 150 146 147 135 122 134 146 143 130 104 96 89 78 83 92 98 104 120 141 163 185 190 193 194 198 197
148 158 167 168 164 164 165 164 164 166 169 169 168 167 168 169 167 166 167 169 171 172 172 173 173 173 171 171 171 169 168 165 158 152 150 151 149 146 145 143 144 151 149 145 146 151 157 154 147 146 145 150 159 161 161 164 165 165 165 161 154 151 141 134 140 142 143 134 110 91 75 72 79 80 81 83 92 111 140 168 176 183 186 197 204
158 165 173 172 169 167 165 166 168 168 168 169 169 166 168 171 170 168 169 170 172 174 174 173 172 171 168 165 162 159 157 151 144 139 138 138 137 137 139 138 140 145 147 145 143 143 145 144 139 136 137 140 143 145 148 153 157 162 162 160 160 152 141 144 150 160 165 144 118 106 84 75 71 66 69 73 80 90 101 133 148 158 175 194 204
165 167 172 175 175 172 166 167 170 168 166 168 167 164 167 172 172 170 170 171 172 173 173 169 164 162 161 160 159 156 149 140 133 128 125 125 127 131 132 134 134 133 134 134 131 128 128 130 130 130 131 130 133 143 151 148 144 152 149 145 159 156 146 148 154 163 165 153 123 106 109 98 74 65 66 63 76 89 84 100 131 153 171 186 193
164 166 173 179 181 176 167 166 167 167 168 167 166 163 165 171 172 172 172 172 170 168 167 164 159 156 154 153 155 153 148 144 137 132 129 127 130 133 132 132 131 128 129 128 126 125 127 130 128 129 130 125 124 136 148 145 131 134 137 135 157 162 154 149 150 158 163 170 174 147 112 97 174 152 103 65 70 87 89 96 118 153 173 175 175
166 167 175 181 182 171 160 164 166 166 167 166 166 165 167 171 173 174 174 172 170 166 163 163 160 156 154 152 150 146 146 150 149 144 143 142 139 137 136 136 135 133 133 131 131 134 138 139 135 134 136 130 124 127 133 134 127 126 133 137 151 166 162 153 154 164 167 179 191 191 227 211 162 154 135 70 78 87 91 102 111 132 153 157 158
173 173 177 178 178 165 153 161 164 162 164 165 166 168 171 172 175 178 177 175 172 167 167 169 166 162 158 154 150 146 146 151 154 152 153 156 154 151 149 147 144 142 141 141 145 150 148 148 146 143 142 138 132 128 128 129 129 126 134 145 145 157 165 158 156 164 165 169 187 211 252 197 158 148 150 143 118 90 89 102 119 123 129 136 135
173 175 177 173 176 165 150 155 159 157 161 167 168 171 173 174 178 181 180 178 174 169 173 176 173 167 161 156 153 153 151 150 153 155 157 158 162 166 162 155 150 148 148 148 150 157 155 151 149 142 139 140 135 128 128 132 132 125 125 136 141 152 162 157 154 161 163 164 177 192 203 174 157 147 151 143 125 105 100 96 116 115 115 118 116
174 174 174 167 166 162 153 151 153 153 160 170 173 173 175 176 180 184 184 181 174 172 175 175 172 167 162 159 156 155 153 150 153 155 152 146 148 157 160 156 152 150 152 149 144 154 160 154 149 142 135 136 133 129 129 132 133 128 123 127 134 142 150 150 150 157 162 164 171 166 158 162 155 136 142 138 125 135 138 150 127 109 102 103 112
165 147 149 153 157 162 153 143 149 155 160 171 176 176 176 178 183 186 186 182 174 173 171 169 171 169 164 161 157 156 156 155 156 153 148 143 143 149 152 153 153 151 152 148 139 147 155 150 145 142 137 133 133 135 136 134 135 131 126 126 128 131 135 142 145 146 153 160 167 165 157 155 147 131 139 138 131 127 122 147 143 123 112 102 107
144 118 129 152 161 161 147 134 146 156 159 170 178 179 179 182 187 186 185 181 174 173 170 168 170 170 167 164 161 160 160 160 159 153 151 149 146 148 149 148 149 149 149 144 134 136 143 140 135 133 132 129 130 134 137 138 136 133 129 126 124 123 125 133 140 143 149 155 163 170 168 163 160 160 158 151 143 134 129 132 132 126 119 112 118
146 133 136 150 159 155 143 137 146 152 155 166 176 181 182 185 189 187 183 179 173 174 173 169 169 170 169 167 166 165 164 163 161 157 157 155 149 149 149 147 145 146 151 148 136 134 139 138 132 132 131 130 132 132 135 138 136 134 128 123 122 119 118 120 122 125 130 136 146 160 169 175 182 180 168 160 155 149 142 132 134 131 112 115 130
156 148 143 153 162 156 148 144 146 151 157 165 174 180 182 186 190 187 182 177 173 174 176 172 172 174 172 170 170 169 167 166 165 163 162 158 153 151 150 150 149 149 153 152 143 138 140 141 138 138 138 138 140 140 142 145 143 138 128 123 123 120 118 115 112 111 110 112 123 136 149 166 180 178 170 162 155 149 141 132 138 136 120 128 135
166 163 156 157 157 151 149 149 149 152 161 169 175 178 179 183 187 185 180 176 173 176 179 176 176 177 175 173 172 170 169 169 168 166 163 159 157 155 153 153 154 155 154 153 150 143 141 142 143 144 145 144 146 148 150 152 153 147 133 124 122 121 119 113 107 105 103 102 106 116 127 139 158 170 171 161 154 151 145 140 137 124 121 131 135
171 164 148 138 139 144 149 153 153 155 164 171 174 174 174 177 182 184 180 177 176 179 181 178 177 179 177 173 171 171 172 172 170 169 165 162 161 160 159 158 159 160 158 156 157 152 145 144 145 147 148 146 147 149 147 144 145 145 136 126 121 124 124 117 111 107 103 100 100 102 107 111 128 153 166 163 157 153 150 146 142 128 115 120 124
168 147 131 134 143 148 152 156 161 164 166 168 170 170 169 172 179 184 182 179 180 182 182 179 177 179 178 175 174 174 174 172 170 170 168 167 167 166 166 167 167 165 164 164 165 162 154 147 147 149 150 148 146 145 141 135 135 138 136 129 124 127 128 122 118 114 107 103 100 97 97 96 105 132 153 159 157 154 152 154 155 149 141 127 113
147 131 138 146 149 154 157 161 167 169 166 167 171 172 172 176 180 182 180 181 183 183 181 178 176 178 179 178 177 176 175 173 171 171 171 170 170 170 170 169 168 167 168 168 169 168 162 152 147 149 151 150 145 143 141 136 135 137 135 130 126 126 125 122 121 118 114 110 105 101 96 95 106 129 148 158 163 165 166 172 173 165 154 144 137
104 110 128 134 144 155 161 165 166 165 167 172 175 176 176 178 180 180 179 180 183 183 181 179 177 178 181 181 179 178 177 175 174 173 174 172 169 169 169 168 168 169 170 170 168 167 164 158 152 150 151 152 148 147 147 143 139 137 134 129 125 123 118 115 118 119 119 119 113 109 102 97 106 127 147 159 167 178 187 187 184 179 170 160 155
85 97 110 114 125 136 147 153 148 149 158 165 169 173 175 176 178 179 179 178 179 181 180 180 178 177 181 181 179 180 179 177 177 176 175 173 170 168 169 169 170 172 173 171 166 162 160 160 159 156 155 154 154 153 149 145 141 138 137 132 126 125 120 115 115 116 121 128 126 121 114 105 106 121 137 148 151 160 180 187 187 188 185 176 165
75 93 105 110 108 114 127 129 123 127 135 137 149 162 167 169 170 172 173 172 171 171 172 176 179 176 177 178 178 179 178 178 179 178 175 174 171 169 170 170 170 173 172 167 163 162 161 161 160 158 154 152 152 150 147 142 137 135 136 134 129 127 124 123 125 124 126 131 134 132 123 114 112 117 126 135 141 144 153 181 192 190 186 182 175
30 46 79 102 104 107 116 117 114 119 127 134 144 150 151 154 158 161 162 157 150 147 147 157 167 165 168 176 179 179 178 179 179 176 175 175 173 171 170 168 169 171 169 165 164 165 164 163 162 161 158 155 152 151 149 145 139 136 137 136 135 133 130 131 136 140 140 136 134 131 120 114 116 114 119 131 140 144 143 164 184 184 178 179 179
24 18 27 72 96 102 106 108 113 121 135 156 161 160 161 156 151 147 142 139 140 142 141 151 162 167 172 176 177 177 177 177 172 169 174 176 173 170 169 168 167 170 173 171 168 167 165 165 166 165 164 160 156 154 152 152 150 148 147 146 146 147 145 144 146 147 147 146 142 129 113 109 113 113 121 134 140 143 145 152 165 170 169 174 180
74 51 19 17 48 77 91 97 107 120 139 165 176 180 178 167 150 138 135 141 151 155 152 154 157 159 163 165 166 167 165 163 163 166 173 174 171 170 172 170 168 170 176 175 169 167 167 167 169 169 168 165 163 161 159 160 163 163 163 161 158 158 158 156 155 153 151 153 153 139 121 113 117 117 118 127 136 140 145 147 152 158 161 167 176
84 88 66 28 35 72 99 100 103 115 138 164 179 177 165 159 159 162 162 164 169 165 150 142 142 143 147 151 150 145 141 142 147 156 166 170 172 174 175 171 168 170 175 176 172 173 172 171 172 172 171 173 172 170 169 170 170 166 166 167 164 165 169 167 162 158 155 154 153 148 141 132 131 129 121 123 132 136 141 143 145 152 160 164 171
68 92 93 65 0 65 96 102 114 131 150 169 176 155 141 154 170 182 180 175 177 174 157 143 143 142 146 150 144 136 136 141 145 150 159 166 171 175 175 173 170 171 176 179 179 181 180 176 175 175 175 177 176 174 175 179 179 171 166 169 171 172 174 173 171 168 163 164 164 159 156 153 147 142 134 132 135 135 136 138 140 144 150 156 163
73 90 91 72 46 56 69 87 116 144 164 178 178 166 158 161 168 173 169 166 174 180 176 169 164 160 159 156 151 152 160 166 169 167 165 166 168 174 180 180 176 175 177 180 182 187 188 185 184 183 182 183 183 182 183 184 183 180 176 174 177 180 180 176 175 175 172 172 175 171 167 169 167 160 155 148 144 143 138 135 135 137 139 142 145
66 73 79 72 63 60 63 73 92 120 148 162 165 171 174 168 164 155 148 153 166 178 184 181 173 170 171 160 153 163 173 174 177 178 177 178 176 180 191 192 186 183 182 182 186 191 194 194 194 192 190 190 187 187 188 187 185 187 189 186 186 190 192 190 186 186 187 189 190 186 180 180 180 176 174 171 163 159 152 140 134 135 137 136 133
53 55 61 61 55 48 46 46 44 55 96 131 140 144 163 190 185 152 139 150 161 170 178 177 171 171 174 163 157 168 177 176 177 179 182 187 184 185 194 196 191 190 189 188 190 193 196 197 197 195 193 191 190 190 192 192 191 193 197 200 202 204 204 207 208 206 207 211 211 205 196 191 190 186 183 187 186 177 168 156 143 138 139 135 131
51 51 53 54 52 49 46 43 37 38 58 93 118 128 146 180 190 174 170 175 173 168 168 171 173 174 173 169 170 177 180 177 179 181 184 189 188 186 191 194 193 193 195 196 195 197 199 199 197 196 194 193 196 201 204 202 201 203 205 209 214 216 218 221 223 223 222 223 220 214 210 205 201 197 190 188 189 181 171 167 162 155 149 141 138
48 48 50 49 49 47 45 45 42 39 45 62 98 129 146 164 173 178 194 198 189 171 157 163 174 175 172 175 182 186 186 184 186 184 183 188 193 192 192 194 196 198 200 202 202 201 202 203 201 198 196 198 203 210 212 213 215 215 213 217 223 225 227 229 229 227 224 222 217 212 211 208 201 196 192 188 189 185 174 167 167 168 163 158 157
44 46 47 46 45 43 42 41 39 39 42 48 77 131 149 161 167 172 183 194 198 184 158 157 167 169 172 179 187 190 192 195 195 189 184 190 198 200 198 199 202 204 203 203 202 201 203 205 205 202 200 203 206 210 214 218 223 222 222 226 229 228 232 237 235 229 222 215 205 199 200 198 191 186 184 183 186 187 185 182 182 188 197 202 196
43 41 40 40 38 36 37 39 38 39 40 44 64 96 113 128 146 161 174 191 206 190 156 151 155 157 167 181 191 196 198 201 199 190 185 187 191 196 197 198 199 199 197 196 195 197 199 202 205 206 205 206 208 210 213 217 220 222 223 224 225 229 235 238 233 223 212 204 193 187 188 185 180 181 184 185 187 189 194 200 202 205 206 203 203
48 41 39 38 34 33 35 37 39 41 42 49 62 73 78 84 100 127 149 162 173 145 118 126 136 146 163 179 190 197 201 204 204 198 193 188 183 184 185 186 190 191 191 191 191 193 196 199 202 205 207 208 208 209 211 215 219 221 222 223 227 231 230 227 220 205 194 189 185 179 177 174 173 178 181 180 180 178 177 178 182 189 190 185 192
56 49 43 40 36 36 38 39 39 40 48 58 64 67 70 75 80 87 96 99 95 84 82 95 109 121 145 166 180 189 192 197 201 203 205 203 199 192 184 180 186 190 192 194 194 196 199 203 206 210 212 211 211 211 214 218 221 223 225 226 224 219 213 208 202 193 185 184 185 179 171 167 167 168 167 166 164 158 149 141 138 141 144 145 152
56 48 43 43 42 42 44 43 39 37 46 57 64 67 69 71 71 71 72 71 69 65 63 68 74 82 116 152 168 172 173 181 192 199 205 208 208 205 200 193 193 197 201 203 204 206 209 211 212 214 215 215 214 214 217 221 222 222 221 216 208 204 202 199 195 190 185 185 187 183 175 170 167 166 165 165 161 154 143 135 135 135 130 127 125
63 60 50 47 46 45 48 49 44 40 43 51 57 62 64 65 65 64 62 60 60 57 55 56 57 58 70 106 150 155 156 174 193 203 208 211 212 213 212 210 207 207 211 213 211 213 216 216 215 216 218 219 221 223 223 223 220 214 206 201 202 204 205 203 196 190 189 188 188 186 180 176 173 171 169 169 167 161 154 148 148 146 140 136 132
70 69 63 60 56 52 52 53 49 43 42 50 56 57 58 58 58 58 56 54 53 51 49 50 50 53 57 62 63 68 75 109 192 217 228 228 230 229 221 217 215 212 212 215 218 222 226 227 226 226 227 230 232 230 223 215 206 198 194 197 202 201 195 191 187 186 189 189 188 187 183 177 174 172 170 170 170 167 165 165 166 162 156 151 144
77 73 66 62 59 55 53 55 55 49 45 47 52 54 55 54 51 50 50 48 46 45 45 46 46 47 49 52 53 53 51 49 42 14 308 270 266 263 248 234 230 225 220 221 224 228 231 234 235 236 236 236 231 219 208 199 192 191 194 196 194 186 178 174 171 173 179 181 179 180 181 177 173 170 168 169 171 172 174 178 180 175 169 163 156
79 75 69 62 60 58 54 54 55 54 51 49 47 49 52 51 47 45 43 40 38 40 43 45 45 44 44 45 46 47 46 43 37 33 29 14 334 293 268 253 244 238 234 231 229 229 230 232 235 237 236 230 217 203 195 190 190 195 199 196 190 185 178 171 168 167 168 171 172 173 178 180 177 172 172 177 181 185 185 184 188 184 174 165 159
71 72 71 69 68 63 56 52 51 52 55 55 53 53 51 47 45 44 40 35 33 36 40 43 43 43 41 39 38 38 38 35 31 30 33 31 25 11 325 277 257 252 251 245 237 234 233 232 230 227 221 213 203 196 194 196 199 204 203 195 192 191 184 175 173 173 171 172 174 176 179 183 183 177 176 180 181 187 187 179 183 188 179 166 159
68 73 76 76 73 67 60 54 51 52 54 57 59 59 54 49 45 43 38 32 29 29 32 35 37 39 38 35 31 28 28 28 24 21 22 22 22 23 16 348 296 270 258 248 241 236 233 231 225 215 209 205 202 201 202 205 209 212 207 198 196 198 195 189 183 182 183 182 182 184 183 184 186 182 175 171 168 169 168 160 163 176 175 163 159
62 66 70 72 71 67 63 57 52 51 53 57 63 62 56 51 48 41 33 27 24 24 25 25 27 30 31 31 27 21 17 16 13 10 10 10 8 6 7 7 358 328 283 254 240 233 231 230 227 219 212 209 209 212 213 213 213 213 210 205 202 201 203 203 197 191 191 190 188 188 186 183 183 180 170 164 160 158 157 154 154 161 165 167 175
56 55 59 66 67 63 60 56 50 48 49 51 57 58 52 47 43 37 27 20 17 16 17 19 21 20 20 22 21 17 15 13 8 3 0 360 358 354 350 354 360 359 347 312 264 244 237 232 231 230 226 222 220 220 221 221 218 215 213 213 212 209 208 212 210 205 200 196 192 190 187 181 178 176 168 160 156 154 154 153 152 154 161 170 180
58 55 55 63 66 61 59 57 52 50 49 46 47 51 48 41 35 30 28 27 21 15 14 17 20 20 19 18 17 14 13 12 10 7 3 1 358 351 347 346 345 348 351 346 322 275 253 245 240 239 237 235 232 227 224 223 221 220 219 218 218 216 212 213 216 216 211 203 195 192 188 180 177 174 166 158 154 154 154 151 146 147 152 161 169
58 54 53 59 63 60 57 54 50 52 55 53 54 57 54 46 38 31 32 35 33 30 28 26 24 23 23 20 16 12 10 8 6 4 5 6 2 356 353 353 349 343 340 341 335 310 273 259 251 249 247 243 239 234 229 225 222 222 223 223 223 222 219 215 216 218 216 209 200 194 187 180 177 173 168 164 162 160 158 151 143 141 146 157 164
51 44 42 46 50 51 53 55 55 57 59 58 57 58 55 50 45 42 42 46 48 48 46 43 39 34 31 27 22 17 12 8 5 3 3 3 1 359 0 3 3 357 346 339 336 327 308 280 257 256 258 249 241 241 239 232 227 224 223 223 223 220 218 215 212 214 216 208 197 190 184 178 176 174 174 175 170 164 161 156 155 159 163 167 168
41 30 26 34 48 56 59 59 57 55 55 53 49 47 45 41 38 36 36 41 47 50 50 49 46 41 36 31 26 21 16 10 8 7 5 4 3 3 6 9 9 3 354 346 341 331 321 309 288 269 258 247 244 249 248 240 238 233 222 218 218 213 211 210 205 208 212 203 188 182 179 176 174 174 178 179 171 164 163 163 166 172 170 168 167
46 47 51 57 62 63 60 57 54 49 46 45 44 42 37 33 30 26 23 27 36 41 43 43 40 37 35 32 28 22 16 11 6 3 2 2 3 3 5 9 8 2 355 348 343 335 324 314 303 286 264 246 240 239 235 234 238 232 214 202 202 195 191 192 194 197 195 185 178 174 171 170 172 174 176 174 166 161 161 160 163 168 170 172 172
67 69 69 67 64 60 54 51 45 36 33 36 39 39 34 29 27 22 18 23 30 33 35 36 34 33 33 31 28 24 17 10 5 360 355 353 354 356 356 356 356 357 356 349 340 336 332 321 308 291 267 246 236 231 228 229 234 234 230 227 210 180 136 92 179 190 179 172 173 173 172 174 178 179 179 177 174 169 164 163 166 169 172 180 188
79 75 72 68 63 57 50 44 35 24 23 25 26 26 25 24 25 21 19 23 28 28 31 31 28 28 27 25 24 24 21 17 12 5 356 344 336 336 342 347 346 345 349 350 342 335 334 327 314 293 266 246 242 241 234 228 231 238 243 243 232 224 228 230 209 197 189 184 182 180 180 181 182 185 188 186 181 178 175 173 174 174 176 184 198
80 75 71 66 59 51 44 42 36 26 20 17 14 14 13 11 12 14 17 20 23 26 30 29 25 23 23 22 24 27 26 23 16 8 2 355 342 327 321 329 338 336 336 341 342 337 333 326 316 301 273 250 245 246 240 237 241 242 237 235 236 236 235 224 207 197 191 187 183 180 178 180 186 192 196 193 190 194 192 185 182 183 182 187 204